Starlink 33625

operational
NORAD ID: 63327 Int'l Des: 2025-057 Owner: SPXS Country: US Constellation: starlink
LEOCIRCULAR

关于 Starlink 33625

正在加载描述...

实时位置

正在加载3D地球...

即将过境

高度历史

Altitude vs Time

uPlot chart will show altitude changes over time

两行轨道根数

1 63327U 25057W 25354.62623573 .00024880 00000-0 91064-3 0 9998
2 63327 42.9986 109.7493 0000563 49.4499 310.6402 15.27578564 43774
Epoch: Dec 20, 2025 • Age: 19 hours

当前状态

高度 482.2 km
速度 7.63 km/s
星下点 2.65°N, 130.25°W
发射日期 Mar 18, 2025
运行时间 0.7 years
类型 internet

技术详情

分类 Payload
质量 575.00 kg
干质量 530.00 kg
总质量 575.00 kg
长度 0.30 m
直径 4.10 m
跨度 29.00 m
形状 Box + pan
制造商 SPXS
平台类型 Starlink V2MO
阶段状态 In Orbit
所有者/国家 SPXS/US

大型星座

Loading constellations...